Regional Weather Roundup
Issued by NWS

Home | Current Version | Previous Version | Graphics & Text | Print | Product List | Glossary On
Versions: 1 2 3 4 5 6 7 8 9 10 11 12 13 14 15 16 17 18 19 20 21 22 23 24 25 26 27 28 29 30 31 32 33 34 35 36 37 38 39 40 41 42 43 44 45 46 47 48 49 50
000
ASUS43 KLSX 260607
RWRMO

WEATHER SUMMARY FOR MISSOURI
NATIONAL WEATHER SERVICE SPRINGFIELD MO
100 AM CDT SAT JUL 26 2014

NOTE: "FAIR" INDICATES FEW OR NO CLOUDS BELOW 12,000 FEET WITH NO
       SIGNIFICANT WEATHER AND/OR OBSTRUCTIONS TO VISIBILITY.
       CURRENT SKY AND/OR WEATHER CONDITIONS ARE NOT AVAILABLE FOR
       CHILLICOTHE AND FARMINGTON.

MOZ001>031-035>038-043-044-053-054-260700-
...NORTHERN AND WESTERN MISSOURI...

CITY           SKY/WX    TMP DP  RH WIND       PRES   REMARKS
KANSAS CTY INT PTCLDY    82  74  76 SW16      29.81S
6HR MIN TEMP:  82; 6HR MAX TEMP:  91;

KANSAS C DTWN  CLEAR     84  73  69 SW17      29.80S HX  90
6HR MIN TEMP:  84; 6HR MAX TEMP:  94;

LEE`S SUMMIT   CLEAR     81  73  76 SW14G23   29.83S
6HR MIN TEMP:  81; 6HR MAX TEMP:  90;

ST JOSEPH      CLEAR     83  74  74 SW12      29.78R
6HR MIN TEMP:  82; 6HR MAX TEMP:  93;

CHILLICOTHE      N/A     82  74  76 S7        29.81R
6HR MIN TEMP:  82; 6HR MAX TEMP:  89;

KIRKSVILLE     CLEAR     72  69  90 S8        29.83S
6HR MIN TEMP:  72; 6HR MAX TEMP:  78;


$$
MOZ066>068-077>081-088>096-101>105-260700-
...SOUTHWEST MISSOURI...

CITY           SKY/WX    TMP DP  RH WIND       PRES   REMARKS
SPRINGFIELD    CLEAR     75  70  84 S10       29.93S
6HR MIN TEMP:  75; 6HR MAX TEMP:  89;

JOPLIN         CLEAR     80  71  74 S14G24    29.91S
6HR MIN TEMP:  80; 6HR MAX TEMP:  89;


$$
MOZ032>034-039>042-045>050-055>058-069>072-260700-
...CENTRAL MISSOURI...

CITY           SKY/WX    TMP DP  RH WIND       PRES   REMARKS
COLUMBIA       CLEAR     77  71  82 S9        29.87S
6HR MIN TEMP:  77; 6HR MAX TEMP:  87;

JEFFERSON CITY CLEAR     77  70  79 SE6       29.86F
6HR MIN TEMP:  77; 6HR MAX TEMP:  88;

ROLLA          CLEAR     74  68  81 S12       29.91F
6HR MIN TEMP:  73; 6HR MAX TEMP:  84;

SEDALIA        CLEAR     82  70  66 SW14G24   29.85F
6HR MIN TEMP:  81; 6HR MAX TEMP:  91;

WHITEMAN AFB   CLEAR     81  65  58 SW17      29.84S
OSAGE BEACH    CLEAR     77  70  78 S5        29.90S

$$
MOZ051-052-059>065-260700-
...EAST CENTRAL MISSOURI...

CITY           SKY/WX    TMP DP  RH WIND       PRES   REMARKS
ST LOUIS INTL  CLEAR     75  65  70 S9        29.90F
6HR MIN TEMP:  75; 6HR MAX TEMP:  81;

SPIRIT OF STL  CLEAR     72  65  78 CALM      29.88F
6HR MIN TEMP:  71; 6HR MAX TEMP:  80;

ST CHARLES     CLEAR     67  65  93 E6        29.89S
6HR MIN TEMP:  67; 6HR MAX TEMP:  78;


$$
MOZ072>076-082>087-097>100-106>115-260700-
...SOUTH CENTRAL AND SOUTHEAST MISSOURI...

CITY           SKY/WX    TMP DP  RH WIND       PRES   REMARKS
CAPE GIRARDEAU CLEAR     70  64  81 S5        29.96R
6HR MIN TEMP:  70; 6HR MAX TEMP:  76;

FARMINGTON     CLEAR     70  64  83 S7        29.97S
6HR MIN TEMP:  70; 6HR MAX TEMP:  79;

POPLAR BLUFF   CLEAR     68  63  84 SW3       29.94F
6HR MIN TEMP:  66; 6HR MAX TEMP:  78;

WEST PLAINS    CLEAR     72  68  87 S6        29.98S
6HR MIN TEMP:  72; 6HR MAX TEMP:  82;


$$



USA.gov is the U.S. government's official web portal to all federal, state and local government web resources and services.